Location: Unspecified
(0.0000°N, 0.0000°E)
Time: 08:13:33
(UTC+00:00)

AO-40 - Pass Details

Date: 02 February 2022
Orbit: 908 x 58912 km, 6.9° (Epoch: 25 May)

Event Time Altitude Azimuth Distance (km) Brightness Sun altitude
Rises 15:23:04 0° 87° (E) 64,807 ? 40.5°
Reaches altitude 10° 16:15:31 10° 87° (E) 62,817 ? 28.2°
Maximum altitude 22:18:58 67° 95° (E) 27,106 ? -57.2°
Drops below altitude 10° 23:53:30 10° 98° (E) 9,433 ? -72.7°
Sets 23:57:30 0° 98° (E) 9,242 ? -72.9°
